Time[GMT],current_u[cm/s](10m),current_v[cm/s](10m),current_u[cm/s](14m),current_v[cm/s](14m),current_u[cm/s](18m),current_v[cm/s](18m),current_u[cm/s](22m),current_v[cm/s](22m),current_u[cm/s](26m),current_v[cm/s](26m),current_u[cm/s](30m),current_v[cm/s](30m),current_u[cm/s](34m),current_v[cm/s](34m),current_u[cm/s](38m),current_v[cm/s](38m),current_u[cm/s](42m),current_v[cm/s](42m),current_u[cm/s](46m),current_v[cm/s](46m),current_u[cm/s](50m),current_v[cm/s](50m),current_u[cm/s](54m),current_v[cm/s](54m),current_u[cm/s](58m),current_v[cm/s](58m)
2008-10-01 15:00,-14.79,-18.81,-17.02,-18.30,-20.90,-16.71,-22.09,-14.76,-20.32,-11.13,-20.56,-13.18,-22.67,-13.47,-24.60,-11.42,-29.78,-3.54,-27.03,-1.51,-24.17,-4.23,-20.05,-6.27,-16.79,1.22
2008-10-01 16:00,-3.32,-17.81,-8.53,-16.70,-9.79,-15.92,-11.11,-12.76,-13.26,-10.36,-18.49,-13.52,-19.30,-14.69,-18.72,-13.80,-18.42,-9.76,-18.18,-4.80,-15.75,-3.48,-13.33,-6.84,-10.78,-7.77
2008-10-01 17:00,1.40,-17.59,-4.78,-18.53,-9.78,-14.87,-5.84,-13.01,-8.08,-7.73,-9.03,-9.14,-13.88,-11.47,-14.23,-11.68,-13.54,-8.67,-8.65,-6.85,-5.27,-7.75,-4.06,-10.53,-1.34,-10.58
2008-10-01 18:00,,,,,,,,,,,,,,,,,,,,,,,,,,
2008-10-01 20:00,9.68,-22.50,4.70,-21.12,5.88,-13.61,4.79,-12.36,9.21,-8.18,14.41,-5.65,9.04,-1.78,4.19,0.99,4.60,3.92,3.70,4.50,2.94,4.27,2.04,2.67,1.36,-0.75
2008-10-01 21:00,5.74,-12.40,-3.19,-11.01,6.21,-5.71,2.16,-5.00,4.73,-4.16,10.06,-0.97,7.85,3.81,2.30,6.49,1.10,8.12,0.60,6.62,0.37,4.16,0.34,2.07,-0.76,0.82
2008-10-01 22:00,6.29,-9.22,2.98,-9.65,9.76,-7.92,6.01,-8.99,4.76,-8.62,11.09,-7.12,10.85,0.61,10.22,3.55,10.42,2.47,9.63,1.62,5.41,2.90,4.63,1.64,5.14,-1.96
2008-10-01 23:00,-0.96,-3.92,-3.99,-6.03,-0.27,-5.59,-1.12,-5.52,3.99,-4.47,12.08,-7.67,12.91,-2.95,11.40,3.06,11.56,3.94,8.14,5.35,3.00,7.31,3.28,6.35,3.18,3.41
2008-10-02 00:00,-5.51,-11.26,-12.50,-11.18,-11.19,-8.51,-5.39,-9.87,-1.34,-8.39,5.84,-13.10,5.05,-7.08,4.22,0.90,2.40,0.69,-2.97,3.10,-5.42,3.65,-7.28,2.18,-5.11,1.14
2008-10-02 01:00,-19.29,-12.92,-25.43,-11.45,-27.41,-9.63,-29.55,-10.14,-24.31,-8.11,-17.74,-9.25,-13.59,-9.93,-11.03,-3.27,-12.33,-1.25,-13.95,-2.86,-14.94,-1.58,-14.29,1.21,-16.02,1.44
2008-10-02 02:00,-11.03,-12.32,-15.39,-11.28,-18.02,-11.51,-18.19,-11.67,-14.62,-10.33,-15.55,-14.34,-13.30,-9.85,-11.66,-2.51,-11.18,-3.10,-10.64,-6.07,-10.68,-5.56,-7.43,-2.75,-10.42,-1.01
2008-10-02 03:00,-12.98,-9.86,-14.95,-4.08,-16.97,-6.84,-16.98,-10.80,-19.89,-11.53,-20.77,-9.91,-19.54,-5.50,-19.07,-0.27,-19.75,-2.23,-17.98,-2.97,-16.62,-2.27,-14.88,-0.73,-14.71,2.33
2008-10-02 04:00,-5.88,-11.05,-7.39,-10.13,-17.09,-11.87,-19.09,-15.77,-21.25,-16.60,-20.43,-11.48,-15.40,-8.68,-16.13,-10.14,-18.00,-10.15,-17.55,-8.46,-16.08,-7.42,-11.98,-7.91,-8.85,-6.49
2008-10-02 05:00,-4.56,-13.48,-4.23,-10.99,-12.32,-11.44,-15.93,-14.45,-18.43,-15.17,-20.02,-10.73,-16.82,-8.46,-13.96,-10.45,-14.11,-7.38,-16.35,-5.73,-16.28,-7.06,-14.83,-7.79,-12.74,-8.54
2008-10-02 06:00,-3.59,-10.70,-0.55,-10.04,-7.87,-13.18,-14.36,-11.61,-18.79,-11.01,-19.69,-4.61,-14.75,-2.25,-11.13,-5.79,-12.14,-5.56,-15.09,-4.33,-14.77,-6.52,-12.77,-6.26,-11.04,-6.49
2008-10-02 07:00,14.60,-9.55,15.72,-9.85,4.58,-10.54,1.07,-12.07,-3.32,-9.48,-5.14,-1.68,-2.77,-1.21,-1.09,-5.62,-2.47,-4.45,-4.31,-2.38,-3.13,-1.42,-3.33,-3.24,-5.63,-5.05
2008-10-02 08:00,12.45,-16.92,10.73,-16.38,5.47,-14.35,6.79,-16.78,6.39,-15.75,4.61,-8.46,6.06,-1.90,4.73,-3.43,3.73,-3.20,2.10,-1.17,1.53,-0.60,0.43,-0.40,-1.54,-0.44
2008-10-02 09:00,7.30,-18.92,4.14,-18.79,5.88,-15.06,15.62,-16.74,15.81,-15.23,8.66,-7.71,10.84,-1.89,8.82,-3.19,7.63,-4.47,6.10,-0.96,6.81,0.19,6.80,2.05,5.26,1.61
2008-10-02 10:00,7.50,-14.91,2.69,-14.83,4.56,-13.36,11.21,-14.78,13.07,-11.86,9.39,-4.07,11.07,-1.61,8.79,-3.82,7.19,-4.39,6.46,-0.75,5.41,0.72,5.68,1.94,6.75,4.75
2008-10-02 11:00,-2.65,-13.24,-5.44,-12.59,-5.35,-11.83,0.86,-13.90,9.47,-17.78,7.00,-13.18,8.62,-9.39,7.27,-7.59,3.10,-7.54,2.05,-6.80,1.67,-4.00,1.85,1.88,3.07,2.34
2008-10-02 12:00,-9.45,-10.20,-11.39,-8.16,-8.47,-7.84,-7.19,-10.49,-4.95,-14.32,-0.72,-9.46,0.01,-7.28,0.42,-5.08,-2.41,-3.92,-2.91,-2.19,-1.55,1.43,-1.75,4.28,-2.60,2.90
2008-10-02 13:00,-8.26,-11.11,-15.67,-14.27,-11.87,-14.85,-13.66,-20.56,-9.66,-21.81,-4.60,-16.61,-4.31,-14.34,-4.52,-12.53,-6.62,-10.64,-8.19,-8.07,-8.10,-5.13,-7.96,-2.70,-10.00,-2.87
2008-10-02 14:00,-21.79,-13.63,-26.26,-17.62,-22.13,-17.89,-20.74,-20.20,-18.48,-22.98,-17.05,-20.70,-13.09,-19.67,-9.02,-16.42,-8.38,-12.49,-7.55,-8.51,-6.88,-6.86,-5.16,-4.50,-6.84,-3.00
2008-10-02 15:00,-14.69,-11.91,-27.04,-11.29,-22.70,-11.19,-23.22,-7.91,-22.23,-6.27,-21.90,-6.70,-18.12,-10.09,-15.29,-11.25,-15.24,-7.80,-15.37,-5.55,-13.65,-3.91,-12.69,-2.91,-11.62,-0.11
2008-10-02 16:00,-8.97,-23.48,-23.96,-20.92,-17.90,-15.22,-17.90,-10.85,-19.88,-14.85,-21.81,-21.55,-21.10,-22.90,-22.92,-23.11,-21.86,-20.62,-20.19,-17.75,-19.01,-15.33,-17.60,-14.10,-14.84,-13.93
2008-10-02 19:00,6.52,-28.19,-6.90,-19.46,-9.37,-13.40,-3.98,-8.63,-0.94,-6.51,-7.39,0.38,-12.54,-0.16,-13.48,2.38,-13.14,4.45,-12.32,0.52,-11.14,-1.43,-9.02,-2.28,-8.23,-2.88
2008-10-02 21:00,13.43,-22.89,10.56,-13.62,10.84,-12.39,12.23,-8.56,20.44,-10.68,15.47,-7.53,8.50,1.19,5.92,4.40,5.05,4.88,2.84,3.52,2.61,0.33,4.07,-1.85,3.68,0.22
2008-10-02 22:00,4.45,-17.34,4.03,-10.08,8.32,-10.51,9.36,-9.07,13.83,-9.04,12.34,-2.39,11.03,4.72,9.86,6.99,8.03,7.19,5.24,5.66,3.55,4.66,3.10,4.43,1.43,2.28
2008-10-02 23:00,4.29,-16.77,0.94,-7.64,4.14,-5.37,3.82,-5.35,8.62,-8.66,12.86,-7.86,14.41,-2.01,16.97,6.11,16.09,10.65,11.86,10.16,9.74,10.28,7.42,8.58,4.34,5.20
2008-10-03 00:00,-8.46,-19.49,-16.25,-11.53,-6.19,-3.44,-2.09,-1.43,-1.14,-3.65,2.92,-8.01,8.82,-3.19,12.86,0.88,10.94,5.01,8.76,6.46,5.12,6.46,1.05,5.40,-0.54,5.88
2008-10-03 01:00,-10.56,-19.78,-16.94,-20.36,-22.15,-18.52,-19.94,-9.57,-10.04,-4.54,-5.17,-9.18,-0.44,-10.43,6.50,-5.63,10.89,-2.08,10.99,0.13,6.40,2.35,3.68,3.86,-0.20,5.77
2008-10-03 02:00,-26.02,-23.90,-21.34,-24.64,-14.54,-20.40,-11.44,-21.07,-7.34,-18.65,-3.03,-22.09,-1.20,-23.02,3.74,-17.76,7.41,-17.12,8.64,-13.44,6.91,-11.75,4.32,-10.72,0.27,-11.47
2008-10-03 03:00,-24.25,-13.40,-22.56,-10.94,-18.52,-6.87,-13.39,-5.92,-9.72,-5.28,-15.57,-8.83,-9.73,-9.97,-2.53,-7.49,1.64,-9.00,0.93,-7.22,-0.02,-5.73,-2.72,-4.32,-4.61,-3.51
2008-10-03 04:00,-10.87,-12.17,-7.49,-10.89,-3.80,-9.62,-14.73,-9.22,-25.41,-11.86,-26.22,-15.95,-17.32,-14.33,-10.92,-10.52,-8.33,-11.96,-6.30,-9.61,-7.88,-8.81,-8.74,-8.33,-8.51,-5.87
2008-10-03 06:00,,,,,,,,,,,,,,,,,,,,,,,,,,
2008-10-03 07:00,6.57,-19.65,11.36,-25.46,15.82,-21.06,9.30,-12.11,2.09,-2.94,-3.71,-1.58,-6.31,-4.83,-3.77,-11.17,-2.97,-9.59,-1.50,-7.82,-0.20,-6.92,2.27,-5.38,4.93,-3.79
2008-10-03 08:00,2.59,-18.82,2.80,-27.91,6.99,-30.56,1.92,-21.92,-0.62,-8.71,-2.19,-4.69,-7.03,-5.24,-8.01,-9.79,-5.88,-11.78,-4.70,-10.09,-3.05,-8.57,-1.08,-7.49,1.26,-7.65
2008-10-03 09:00,6.43,-12.62,4.80,-23.28,6.46,-22.91,6.41,-13.66,3.70,-4.56,6.14,2.18,4.54,4.11,-1.79,1.15,-3.75,-1.80,-2.99,-1.90,-2.61,-2.52,-1.49,-3.13,0.95,-2.95
2008-10-03 10:00,19.76,-6.51,13.90,-16.92,9.87,-22.45,9.09,-15.39,10.20,-8.73,15.41,0.67,16.56,5.37,10.23,4.60,7.06,2.96,7.74,2.74,9.57,2.54,10.74,2.46,8.38,1.99
2008-10-03 11:00,18.58,3.77,16.52,0.06,12.44,-6.73,2.84,-9.90,3.71,-4.97,10.82,3.62,13.66,12.97,12.94,16.19,10.26,15.01,9.30,14.01,9.67,13.80,10.36,14.31,9.08,13.32
2008-10-03 12:00,7.80,-7.23,7.81,-9.10,1.30,-11.80,-12.56,-18.58,-12.46,-14.60,-0.37,-12.49,7.54,-8.14,10.10,-4.39,6.76,-0.35,7.73,0.97,10.41,1.42,7.46,0.47,3.85,-1.81
2008-10-03 13:00,4.47,-2.15,2.50,-3.65,-0.33,-4.67,-12.66,-7.37,-21.53,-6.90,-23.80,-4.43,-10.47,-6.64,5.74,-8.76,8.96,-7.31,9.92,-4.85,11.20,-3.86,8.63,-3.25,4.07,-5.49
2008-10-03 14:00,4.12,-2.77,0.58,-4.93,-10.06,-6.63,-19.16,-11.53,-13.93,-9.09,-14.50,-8.94,-10.98,-13.97,-4.27,-12.67,-3.72,-5.54,-4.80,-2.83,-4.82,-2.42,-8.61,1.38,-9.27,-1.41
2008-10-03 15:00,6.74,-8.99,1.45,-11.23,-7.64,-16.55,-20.04,-20.10,-24.37,-11.88,-21.44,-13.01,-13.01,-17.05,-9.34,-12.04,-8.67,-7.48,-7.53,-6.74,-9.92,-7.11,-11.34,-4.71,-14.07,0.44
2008-10-03 16:00,10.75,-6.28,5.00,-9.80,-9.87,-10.22,-20.61,-5.39,-20.04,-3.04,-19.15,-9.76,-18.11,-9.04,-16.17,-6.72,-13.00,-5.08,-11.99,-5.00,-15.38,-2.95,-18.26,0.17,-19.15,2.94
2008-10-03 18:00,7.75,-15.78,-6.55,-17.79,-15.55,-2.38,-19.07,4.83,-26.18,-0.12,-25.68,-4.04,-23.37,-6.29,-19.98,-7.60,-15.78,-6.29,-15.50,-5.07,-13.89,-6.69,-12.01,-7.09,-10.80,-6.95
2008-10-03 19:00,16.02,-19.96,2.53,-17.17,-9.34,-10.59,-8.91,-0.48,-11.11,-0.79,-9.76,-2.59,-9.82,-2.40,-11.62,-2.29,-10.19,-3.65,-7.43,-2.03,-5.44,-2.08,-5.57,-2.33,-5.86,-3.87
2008-10-03 20:00,13.52,-20.67,3.63,-15.92,-4.51,-6.39,-3.52,1.38,-10.84,2.61,-10.80,2.83,-12.34,3.12,-14.74,2.43,-14.85,1.36,-13.61,-0.78,-11.25,-1.04,-9.41,-0.20,-6.87,0.01
2008-10-03 22:00,20.19,-17.10,12.52,-11.39,11.61,1.25,20.94,2.78,22.60,6.79,15.43,8.59,12.50,9.72,9.60,12.22,9.41,14.35,7.97,13.21,8.23,11.20,8.23,9.75,6.68,9.72
2008-10-03 23:00,9.01,-18.74,3.74,-16.30,0.83,-5.07,5.72,-6.16,9.59,-4.43,9.35,1.85,9.42,5.61,10.97,8.55,11.51,10.27,9.04,8.73,5.06,7.38,2.53,7.49,0.75,5.73
2008-10-04 00:00,5.78,-12.91,2.33,-12.85,-1.78,-5.40,-0.93,0.36,5.75,-4.07,11.62,-1.35,11.62,5.93,12.56,5.89,16.05,5.33,15.49,8.39,13.08,8.43,9.24,5.15,5.92,2.95
2008-10-04 01:00,2.64,-13.91,0.58,-15.44,-1.38,-12.25,-5.45,-1.67,-0.69,-1.24,6.44,0.39,3.98,2.08,4.10,-2.67,5.29,-3.58,7.78,-1.72,7.82,-0.78,4.49,-0.06,-0.80,-0.85
2008-10-04 02:00,-22.26,-4.72,-18.55,-4.59,-13.03,-0.62,-13.06,-1.25,-10.37,-2.66,-6.25,-4.70,1.64,-6.81,9.42,-1.67,6.73,-3.17,10.02,-6.28,10.42,-4.40,6.25,-4.03,3.34,-4.04
2008-10-04 03:00,-8.07,2.37,-9.65,2.44,-10.35,3.80,-7.73,6.63,-4.71,0.83,-1.22,-6.28,5.47,-4.57,4.86,0.46,0.47,-0.18,0.63,-2.94,-0.45,-1.69,-3.42,-0.04,-6.91,0.52
2008-10-04 04:00,-4.24,-2.26,-4.61,-2.05,-3.30,2.07,-2.96,1.96,-5.19,-6.58,-3.23,-11.95,0.77,-11.02,-2.15,-8.11,-4.55,-10.98,-3.49,-11.40,-6.57,-10.83,-8.93,-8.39,-10.54,-5.31
2008-10-04 05:00,-3.51,-2.98,-3.88,-3.51,-2.30,1.84,-2.57,-0.84,-12.23,-7.77,-8.00,-12.38,-6.84,-10.60,-10.73,-9.74,-10.29,-9.82,-9.98,-9.83,-9.76,-8.42,-10.24,-4.91,-12.57,-2.98
2008-10-04 06:00,8.82,-1.01,6.76,-0.35,1.25,-4.74,-15.96,-10.72,-13.46,-12.91,-10.69,-12.43,-13.79,-10.30,-15.32,-8.97,-14.63,-9.92,-12.06,-9.81,-9.37,-9.76,-8.89,-8.17,-9.77,-5.82
2008-10-04 07:00,14.54,1.88,13.27,2.35,-0.18,-1.20,-11.37,-5.34,-10.23,-7.51,-14.32,-2.65,-15.89,-3.00,-13.60,-1.92,-11.82,-2.66,-9.94,-3.06,-11.10,0.25,-12.89,2.13,-12.42,3.41
2008-10-04 08:00,23.76,1.30,21.85,2.52,13.07,6.66,-0.45,7.36,-2.10,1.89,-4.18,5.15,-6.75,8.67,-5.93,7.25,-6.14,2.92,-5.21,2.56,-5.25,5.26,-3.77,8.07,-2.19,8.01
2008-10-04 09:00,25.90,-4.33,18.30,-5.05,7.86,-2.01,3.31,-1.76,2.37,-3.17,1.01,4.45,0.41,6.57,-0.29,3.56,-0.89,0.58,-0.99,1.28,-1.24,3.60,-1.28,3.38,-1.22,0.27
2008-10-04 10:00,25.51,-3.71,16.77,-1.54,5.67,4.54,3.38,1.28,2.69,1.50,4.40,4.59,3.69,6.36,1.23,5.14,0.35,4.57,2.01,6.40,4.28,6.12,4.16,6.91,1.19,4.19
2008-10-04 11:00,27.98,-3.63,26.45,2.07,20.63,6.43,12.69,5.82,12.33,4.89,15.95,6.76,14.44,9.86,10.94,10.83,8.75,10.10,9.85,8.44,11.28,8.54,12.35,9.16,8.52,7.65
2008-10-04 12:00,10.57,-17.98,10.47,-15.83,9.90,-8.40,8.62,-2.84,6.00,0.47,1.60,5.66,3.05,8.57,7.56,8.83,8.74,12.70,7.12,14.00,8.16,11.81,9.82,11.45,7.46,10.98
2008-10-04 14:00,,,,,,,,,,,,,,,,,,,,,,,,,,
2008-10-04 15:00,-11.38,-10.02,-11.30,-8.13,0.58,-7.11,1.48,-10.60,2.48,-7.92,-0.16,-2.34,-1.64,-7.34,-1.12,-10.62,2.16,-7.18,1.43,-3.54,-0.50,-5.14,-2.51,-6.86,-4.51,-5.66
2008-10-04 16:00,-28.03,9.96,-28.11,10.25,-13.81,3.53,-9.19,-1.70,-3.52,-7.67,1.17,-2.27,0.52,-0.37,0.80,-6.43,3.73,-6.11,9.25,-3.59,3.91,-4.19,-0.55,-3.90,-3.09,-3.38
2008-10-04 17:00,-17.21,9.21,-12.52,6.29,-4.49,-4.30,-4.50,-10.44,-4.03,-6.25,-6.51,-4.15,-8.99,-9.65,-5.72,-11.63,-3.31,-10.94,0.65,-8.45,-2.74,-7.86,-6.96,-6.57,-7.73,-5.34
2008-10-04 18:00,-18.28,7.87,-16.18,9.61,-5.14,-1.68,-6.86,-9.46,-6.39,-7.45,-7.37,-5.13,-9.62,-8.17,-9.89,-10.85,-7.78,-10.24,-5.69,-9.54,-6.57,-7.92,-7.34,-6.68,-8.00,-4.38
2008-10-04 19:00,-8.77,11.01,-1.61,7.44,0.78,-8.52,0.90,-12.22,2.55,-5.62,0.95,-2.95,-3.42,-4.41,-7.62,-7.91,-6.47,-9.35,-5.30,-6.93,-5.29,-7.66,-5.53,-7.93,-4.80,-5.02
2008-10-04 20:00,6.22,12.40,9.65,5.16,6.81,-12.51,11.17,-12.82,11.56,-7.30,7.15,-6.06,2.95,-7.37,-0.93,-7.65,-1.79,-7.90,-0.85,-5.76,-0.02,-6.46,0.28,-6.06,1.21,-3.50
2008-10-04 21:00,13.37,12.88,12.24,1.95,8.90,-11.08,10.20,-10.18,7.29,-7.27,1.21,-4.96,-1.18,-4.60,-0.17,-4.84,1.34,-4.30,0.86,-5.16,0.07,-4.24,1.06,-1.88,0.76,-0.10
2008-10-04 22:00,25.68,9.86,15.67,5.95,8.80,2.32,12.62,-1.58,10.84,-1.16,6.70,2.03,3.68,3.14,4.13,0.46,7.09,-0.05,7.79,-1.41,6.17,-2.29,5.65,-1.19,7.44,0.89
2008-10-04 23:00,17.99,2.56,16.08,3.78,3.07,6.71,-2.77,4.93,2.07,0.39,3.25,0.62,0.85,2.84,-1.65,2.13,-0.58,-1.62,0.02,-3.32,-2.64,-2.42,-6.98,1.12,-6.85,5.74
2008-10-05 00:00,18.22,8.66,19.29,7.09,20.79,7.31,20.73,7.51,14.98,10.54,8.78,10.74,9.07,4.99,9.84,7.40,0.55,15.14,-1.43,28.20,-8.98,37.48,-7.77,27.11,-0.69,12.91
2008-10-05 01:00,7.51,-0.45,11.17,0.60,14.27,-0.80,16.98,-1.17,14.52,-3.12,8.27,-1.27,2.72,-0.05,3.13,-2.22,2.90,-2.50,-1.21,-3.78,2.39,-1.08,-1.61,1.62,0.34,-0.11
2008-10-05 02:00,2.63,3.15,10.95,0.64,13.71,0.08,15.75,-4.12,14.69,-6.61,10.81,-1.06,6.85,3.32,4.44,0.13,-0.29,-0.81,-1.73,-2.68,-0.97,-1.32,-1.37,-0.29,2.38,0.06
2008-10-05 03:00,1.05,4.67,8.42,0.02,13.04,-2.30,11.71,-6.01,10.40,-5.44,7.60,-1.46,4.35,1.14,0.33,2.49,-0.54,3.69,-0.76,5.19,-0.36,6.35,0.72,5.82,1.77,5.08
2008-10-05 04:00,-4.13,-1.19,-1.88,-6.88,-0.24,-11.51,-0.25,-14.74,-0.44,-14.07,-4.35,-8.42,-8.72,-6.24,-10.71,-4.01,-9.90,-2.11,-8.76,-1.37,-7.44,-2.34,-7.78,-3.69,-8.24,-3.19
2008-10-05 05:00,-12.99,10.84,-6.73,3.17,-0.90,-4.84,-4.42,-16.14,-8.88,-19.82,-8.27,-14.33,-8.36,-7.49,-9.81,-2.08,-9.67,1.08,-7.71,2.58,-6.24,0.71,-3.48,1.60,0.05,0.54
2008-10-05 06:00,-4.66,13.33,1.60,3.48,-0.56,-6.40,-8.48,-10.34,-12.38,-6.88,-13.60,-3.38,-9.83,-1.26,-7.09,-0.68,-6.68,2.97,-5.36,7.10,-4.28,3.66,-1.25,1.83,-0.70,3.54
2008-10-05 07:00,-0.64,8.76,-2.60,-6.16,-12.15,-7.33,-14.16,-3.96,-12.27,-1.12,-11.25,-3.95,-9.38,-5.39,-7.26,-2.60,-6.72,-1.61,-4.78,-2.93,-3.03,-4.30,-3.19,-0.50,-2.91,-1.46
2008-10-05 08:00,6.71,10.35,-1.46,1.45,-9.51,-0.23,-5.41,-0.72,-3.24,1.15,-6.04,-3.60,-5.67,-3.08,-4.49,-2.12,-2.99,-1.17,-1.88,1.85,-1.89,-0.65,-2.91,-2.19,-1.75,1.37
2008-10-05 09:00,11.86,8.71,6.00,1.20,-0.72,1.77,-4.81,4.45,-8.13,2.24,-6.97,2.16,-5.31,3.26,-4.44,2.78,-2.39,3.27,-4.19,3.38,-3.87,0.45,-3.92,3.87,-2.41,8.78
2008-10-05 10:00,15.78,-1.72,10.80,-3.56,3.34,-1.12,0.81,4.08,0.78,5.63,-1.88,3.31,-0.90,2.76,-1.20,4.55,-1.13,5.40,0.73,11.24,2.48,21.10,0.65,12.98,1.06,8.63
2008-10-05 11:00,24.04,-6.94,17.92,-4.43,12.84,6.39,13.05,12.90,13.53,12.31,10.62,11.58,10.14,10.71,11.45,10.88,12.39,10.11,10.20,8.33,6.24,8.34,4.13,6.28,5.47,7.40
2008-10-05 12:00,17.30,-6.27,14.95,-4.24,10.26,3.05,9.89,13.03,12.13,12.84,12.05,10.22,6.49,10.39,6.16,8.63,7.13,9.95,4.45,10.95,1.80,10.40,0.58,7.76,1.72,7.78
2008-10-05 13:00,5.87,-7.05,6.78,-3.67,6.12,2.59,6.69,10.03,5.76,9.66,5.32,6.10,2.45,7.78,0.31,6.54,1.88,4.70,1.74,6.64,-0.40,6.85,-2.15,6.04,-2.05,5.34
2008-10-05 14:00,-13.54,-6.48,-5.10,-6.87,2.28,-2.88,5.67,0.90,9.87,5.12,8.91,2.66,7.61,1.04,4.70,2.49,4.59,-0.76,4.12,-0.59,1.95,2.64,0.33,2.49,-0.13,1.52
2008-10-05 15:00,-22.95,12.56,-14.04,6.90,-3.92,1.69,-3.35,0.81,2.43,2.05,6.58,2.09,5.19,-1.42,2.39,-1.81,0.36,-3.43,-0.04,-3.86,-0.66,-0.61,-1.59,-1.70,-2.20,-2.50
2008-10-05 16:00,-22.92,22.97,-12.93,18.97,-4.13,10.78,-0.46,7.05,6.44,1.85,9.23,-1.72,3.82,-5.35,-0.67,-5.29,-2.55,-4.89,-2.99,-2.63,-3.93,-1.54,-4.83,-2.01,-4.89,-1.82
2008-10-05 17:00,-14.68,19.61,-5.65,14.61,0.39,4.79,1.99,-0.78,4.17,-9.10,0.06,-10.38,-7.40,-7.22,-12.10,-6.07,-13.10,-5.11,-12.95,-3.09,-15.75,-2.02,-16.88,-1.72,-16.44,-1.07
2008-10-05 18:00,-2.89,15.51,2.37,1.51,-0.83,-6.17,-2.39,-13.07,-6.23,-17.08,-11.94,-15.70,-17.67,-9.12,-17.70,-8.30,-15.65,-7.82,-17.25,-6.61,-18.46,-6.02,-19.03,-6.19,-18.00,-6.51
2008-10-05 19:00,4.11,11.06,6.50,0.93,6.94,-3.52,-4.93,-12.55,-13.60,-16.07,-14.89,-17.38,-15.80,-15.66,-15.91,-9.45,-15.17,-6.95,-13.96,-6.81,-13.47,-2.72,-13.70,0.23,-15.18,1.78
2008-10-05 20:00,12.05,7.31,13.65,-7.32,14.28,-10.99,0.55,-13.16,-13.30,-12.76,-15.69,-12.40,-13.70,-9.55,-11.15,-5.38,-9.73,-4.14,-9.27,-3.59,-9.22,-1.60,-10.88,2.39,-9.26,4.00
2008-10-05 21:00,16.73,3.34,14.93,-3.83,10.26,-4.23,-5.81,-3.33,-13.62,-3.28,-14.35,-1.10,-10.63,-1.38,-9.67,-1.84,-6.70,-0.57,-4.69,2.92,-3.65,5.82,-4.40,7.37,-3.99,7.39
2008-10-05 22:00,14.04,-6.90,8.81,-10.06,6.60,-9.97,-2.55,-4.16,-9.33,2.42,-9.69,4.40,-8.28,0.95,-4.45,0.28,-2.63,1.54,-3.32,5.40,-4.11,7.45,-0.61,8.67,0.23,6.10
2008-10-05 23:00,20.06,-9.02,13.46,-9.56,12.59,-9.08,5.62,-6.92,-2.27,3.93,-7.44,11.81,-6.78,7.31,-3.76,6.21,-1.57,6.21,-0.64,9.49,-0.52,10.88,1.82,9.99,-2.54,10.30
2008-10-06 00:00,16.69,-11.76,12.48,-7.97,9.25,-5.77,4.34,-4.27,1.73,5.59,-1.14,13.41,-3.39,13.28,-3.03,10.57,-0.43,9.13,0.21,9.42,2.15,10.29,2.67,8.46,3.69,5.64
2008-10-06 01:00,9.39,-13.53,7.84,-7.74,6.61,-5.28,3.95,-3.24,8.13,3.58,8.80,7.41,4.56,12.02,3.89,11.10,5.05,6.34,4.50,3.89,4.91,5.36,4.89,4.73,2.85,3.11
2008-10-06 02:00,4.44,-7.88,0.72,-4.68,-0.78,-1.26,-5.21,1.11,2.12,6.75,0.31,10.91,-3.78,12.44,-3.54,9.80,-3.03,6.21,-2.93,2.59,-2.72,3.69,-4.84,4.54,-4.78,3.62
2008-10-06 03:00,-4.67,-9.45,-8.37,-6.35,-6.00,-1.20,-8.60,2.42,-6.45,6.16,3.37,10.74,5.03,14.03,3.05,12.94,3.15,12.24,2.92,9.05,2.07,6.94,1.86,7.30,2.00,8.27
2008-10-06 04:00,-23.15,4.91,-19.31,-0.86,-17.06,-2.19,-18.19,3.21,-12.41,8.09,-7.15,8.25,-2.86,6.36,1.74,3.00,2.10,3.93,-0.00,2.91,-2.13,0.53,-2.19,1.45,-1.83,2.39
2008-10-06 05:00,-27.49,9.18,-21.68,3.77,-16.28,1.99,-10.17,4.99,-4.77,3.94,-3.54,-2.16,-3.77,-4.62,-2.76,-4.54,-5.38,-6.64,-7.80,-6.92,-6.71,-7.44,-6.31,-5.56,-4.71,-3.53
2008-10-06 06:00,-15.28,18.09,-6.57,13.83,0.94,10.15,-2.35,2.03,-7.61,-3.95,-10.01,-5.37,-9.83,-1.26,-6.98,-1.79,-10.44,-3.51,-12.92,-3.91,-13.14,-5.33,-12.15,-1.51,-12.21,1.60
2008-10-06 07:00,-5.16,8.20,1.33,7.35,3.56,1.75,-10.96,-5.33,-18.97,-12.20,-12.51,-14.41,-9.85,-9.90,-11.16,-12.25,-12.24,-11.73,-13.66,-7.87,-14.73,-8.49,-14.03,-9.12,-13.63,-6.51
2008-10-06 08:00,-5.22,16.40,1.18,12.20,8.81,4.82,0.71,0.41,-16.54,-1.83,-17.49,-7.20,-11.86,-7.98,-10.68,-7.74,-14.32,-7.02,-15.21,-7.17,-13.29,-6.62,-11.63,-4.06,-9.97,-1.51
2008-10-06 09:00,0.59,5.58,8.83,-0.69,13.91,-0.28,16.92,-0.97,6.93,-6.75,-7.03,-7.42,-9.61,-7.12,-4.89,-10.87,-4.45,-10.22,-5.90,-9.18,-3.33,-5.43,-0.20,-4.01,-0.67,-3.10
2008-10-06 10:00,10.68,7.02,13.94,4.72,18.64,4.30,19.34,2.22,6.73,1.20,-5.33,4.09,-6.10,3.87,-4.15,0.68,-4.30,0.85,-4.73,1.25,-4.19,1.19,0.97,4.23,1.68,6.83
2008-10-06 11:00,,,,,,,,,,,,,,,,,,,,,,,,,,
2008-10-06 12:00,9.66,-5.03,21.35,-7.71,24.05,-10.58,24.64,-10.10,16.76,-5.49,8.71,0.83,5.49,3.34,4.76,1.89,3.05,2.43,1.59,1.70,3.17,1.64,2.13,2.38,1.73,4.14
2008-10-06 13:00,7.73,3.88,17.25,-1.40,21.45,-6.96,16.59,-9.60,10.83,-5.84,3.34,0.33,-2.03,2.02,-2.71,2.55,-4.40,3.73,-5.58,2.77,-6.01,3.90,-9.14,3.21,-9.45,3.95
2008-10-06 14:00,4.16,6.19,12.64,-0.54,14.01,-10.76,4.68,-12.70,1.93,-5.27,2.97,0.54,-2.13,4.90,-2.89,4.27,-4.42,8.51,-7.52,9.18,-8.18,8.58,-6.60,9.24,-5.97,10.67
2008-10-06 15:00,-3.66,8.42,6.11,4.46,11.49,-6.69,4.41,-12.47,-2.69,-12.01,-1.26,-5.77,2.87,1.24,2.36,4.11,1.34,4.75,0.80,9.90,1.76,12.36,2.58,14.58,1.84,14.26
2008-10-06 16:00,-2.03,7.43,3.82,-2.44,-0.35,-12.58,-10.41,-13.39,-13.31,-12.35,-7.42,-10.76,-0.09,-5.85,-1.63,-3.38,-1.77,-0.72,-2.71,3.28,-1.84,4.26,-0.86,4.44,-0.79,6.74
2008-10-06 17:00,-7.92,10.94,0.70,3.74,-3.10,-5.88,-14.25,-6.90,-14.90,-5.73,-6.81,-6.01,-4.55,-5.88,-4.12,-4.51,-1.81,-0.94,-1.14,3.63,1.18,4.60,1.12,5.52,-0.76,8.10
2008-10-06 19:00,0.43,5.74,-1.77,2.92,-13.26,0.88,-16.18,2.02,-15.31,-1.37,-11.33,-4.39,-9.94,-9.61,-6.35,-7.23,-3.20,-5.18,-1.79,-5.72,-1.39,-8.20,-1.42,-6.65,-1.13,-5.84
2008-10-06 20:00,4.46,4.40,2.15,3.01,-7.67,4.98,-12.59,5.44,-14.56,2.17,-10.14,-0.93,-8.62,-8.40,-5.51,-9.07,-2.46,-9.55,-0.28,-8.09,-0.95,-9.74,-1.54,-8.04,-2.81,-5.80
2008-10-06 21:00,4.45,0.44,1.24,0.77,-5.38,5.32,-4.13,7.14,-5.51,4.35,-6.92,-2.71,-7.85,-6.00,-6.76,-7.25,-5.43,-5.72,-3.12,-7.24,-2.01,-8.59,-2.04,-6.31,-1.47,-3.96
2008-10-06 22:00,10.44,2.06,3.81,6.29,-1.27,8.06,-2.26,11.52,-3.44,10.56,-4.66,3.55,-7.33,-4.18,-7.93,-5.71,-7.48,-6.20,-6.75,-4.75,-6.03,-4.74,-6.74,-3.70,-2.99,-0.44
2008-10-06 23:00,10.94,-1.86,8.54,3.59,4.26,8.71,6.73,13.17,5.69,11.72,-0.53,7.65,-7.49,2.53,-10.84,-0.30,-11.67,-2.10,-11.04,-4.31,-9.74,-3.42,-9.93,-2.01,-7.69,-0.75
2008-10-07 00:00,26.36,-5.24,22.13,0.10,27.01,7.75,23.48,8.81,22.23,5.54,17.08,7.19,7.62,8.63,2.37,8.79,-1.53,8.61,-1.54,6.84,-0.31,7.61,0.80,6.26,3.95,9.45
2008-10-07 01:00,16.05,-10.27,11.24,-2.19,15.45,4.53,15.82,4.33,10.77,-2.01,6.75,-2.12,2.37,3.70,-1.97,7.24,-6.05,5.86,-8.55,2.96,-9.22,3.49,-7.49,3.99,-6.94,4.25
2008-10-07 02:00,4.58,-10.54,3.85,-2.54,3.66,6.46,8.48,6.70,4.15,-0.68,0.55,-0.47,-1.72,3.46,-2.04,9.30,-4.05,13.40,-8.18,10.76,-10.83,9.48,-10.87,8.53,-10.86,9.58
2008-10-07 03:00,-2.63,-9.70,2.88,-4.59,6.88,-0.42,6.93,-8.94,4.46,-11.20,6.64,-6.11,5.87,0.23,3.11,6.20,0.15,6.39,-4.00,2.70,-6.07,0.86,-6.69,0.47,-6.64,1.74
2008-10-07 04:00,-17.59,-10.87,-5.10,-9.78,0.24,-6.28,2.13,-11.77,-2.81,-22.13,0.44,-19.33,5.49,-11.53,8.07,-6.01,4.71,-1.56,0.60,0.80,-0.31,-2.90,-2.50,-2.17,-1.52,-1.58
2008-10-07 05:00,-18.10,-1.45,-7.87,-2.67,-0.74,-1.04,-5.25,-8.89,-11.03,-13.77,-8.00,-9.47,-1.20,-5.23,2.68,-2.46,-0.52,2.55,-4.03,4.98,-5.83,4.36,-7.75,3.08,-6.91,2.70
2008-10-07 06:00,-38.23,-7.43,-29.45,-10.11,-17.45,-13.53,-12.61,-13.71,-18.15,-21.23,-18.73,-22.85,-13.17,-18.65,-6.28,-15.84,-3.30,-12.81,-4.84,-9.61,-7.57,-8.41,-9.37,-9.03,-8.87,-8.26
2008-10-07 07:00,-24.92,2.74,-21.50,2.05,-13.65,-1.73,-11.38,-7.11,-13.53,-11.58,-12.13,-11.39,-5.96,-10.76,0.72,-9.05,1.15,-5.81,1.51,-3.83,1.38,-4.81,1.37,-5.85,-0.60,-5.17
2008-10-07 08:00,-18.96,1.53,-17.83,0.50,-11.05,-4.63,-13.67,-9.64,-18.43,-13.71,-15.06,-13.89,-8.76,-16.97,-3.93,-14.96,-2.48,-11.32,-1.03,-10.18,-0.73,-11.24,-1.62,-10.66,-2.34,-8.89
2008-10-07 09:00,-2.30,6.93,0.53,6.50,3.49,2.35,-6.14,-2.18,-10.76,-6.00,-10.02,-4.95,-4.59,-9.74,-1.19,-9.29,0.90,-5.67,3.30,-6.44,3.47,-6.29,2.51,-5.84,1.03,-3.97
2008-10-07 10:00,-5.16,4.56,-4.44,4.24,-6.48,-1.34,-16.69,-2.39,-17.38,-0.72,-15.42,-0.99,-12.33,-7.80,-8.49,-9.20,-5.68,-5.58,-4.14,-3.69,-3.02,-3.99,-4.51,-4.94,-4.74,-2.71
2008-10-07 11:00,6.07,-0.86,7.29,1.05,5.55,-1.22,-0.28,1.69,-2.56,4.57,-1.08,7.39,-1.02,2.10,1.31,-4.20,4.37,-4.36,4.91,-3.69,4.80,-6.22,4.03,-5.71,0.72,-4.68
2008-10-07 12:00,7.58,-7.19,7.22,-3.76,11.58,-3.02,5.85,4.28,6.73,2.66,7.02,3.47,3.49,2.35,0.76,-4.46,1.99,-9.11,3.65,-10.19,1.64,-10.45,0.50,-9.01,-1.72,-7.05
2008-10-07 16:00,-9.39,-4.25,-8.94,-4.75,-9.44,-7.70,-2.19,-3.23,0.70,-3.54,0.24,-4.82,2.23,-3.42,0.99,-2.00,-3.14,-1.01,-4.96,-0.49,-4.09,-1.69,-4.49,-0.66,-5.78,0.94
2008-10-07 21:00,-9.40,5.21,-8.45,0.80,-6.34,-4.73,-6.91,-9.26,-10.66,-11.80,-15.91,-12.36,-11.49,-11.10,-7.67,-6.26,-7.10,-3.91,-8.17,-2.34,-10.02,-2.77,-6.95,-2.62,-3.01,-2.94
2008-10-07 22:00,-1.44,7.91,-0.55,4.83,-2.51,1.15,-3.01,-1.49,-8.56,-7.14,-14.37,-9.74,-11.52,-8.09,-6.05,-6.10,-4.41,-3.14,-4.55,-1.20,-3.94,-2.59,-1.96,-5.14,-2.23,-5.63
2008-10-07 23:00,-2.81,7.62,-1.94,6.41,-3.45,2.96,-3.60,0.94,-3.83,-1.51,-7.57,-3.73,-12.57,2.12,-8.90,2.75,-5.33,3.36,-3.97,5.52,-0.42,5.08,0.52,-1.83,1.84,-3.53
2008-10-08 00:00,0.12,1.39,0.55,-0.47,0.03,-1.55,-0.20,-1.10,-4.86,-1.91,-7.93,3.34,-4.91,2.96,1.39,2.06,2.66,4.51,4.64,7.78,3.35,5.02,2.33,2.75,2.29,1.07
2008-10-08 01:00,1.52,0.85,1.79,-1.15,4.82,-0.49,2.98,-1.33,-0.12,-1.39,-1.33,7.53,1.09,4.89,6.82,3.41,8.17,3.80,6.80,2.05,6.62,3.04,4.28,3.20,1.74,1.54
2008-10-08 02:00,3.17,1.64,2.36,2.65,3.73,2.22,0.75,2.82,-1.06,2.61,3.23,11.23,4.03,8.44,7.63,3.85,10.18,2.61,11.89,5.70,8.83,4.40,5.19,0.76,3.97,2.49